Starlink 35156

operational
NORAD ID: 65607 Int'l Des: 2025-207 Owner: SPXS Country: US Constellation: starlink
NOTLE

Starlink 35156について

説明を読み込み中...

リアルタイム位置

3D地球を読み込み中...

次回通過

高度履歴

Altitude vs Time

uPlot chart will show altitude changes over time

軌道要素

1 65607U 25207R 25308.46346426 .00047828 00000-0 12205-2 0 9994
2 65607 97.6076 12.8263 0002743 104.6291 255.5258 15.39351519 9263
Epoch: Nov 4, 2025 • Age: 18 hours

現在のステータス

高度 456.8 km
速度 7.65 km/s
衛星直下点 62.56°N, 91.91°E
打ち上げ日 Sep 13, 2025
運用期間 0.1 years
タイプ internet

技術仕様

分類 Payload
質量 575.00 kg
乾燥質量 530.00 kg
総質量 575.00 kg
長さ 0.30 m
直径 4.10 m
スパン 29.00 m
形状 Box + pan
製造者 SPXS
バスタイプ Starlink V2MO
フェーズステータス In Orbit
所有者/国 SPXS/US

大規模コンステレーション

Loading constellations...